Regional Weather Roundup
Issued by NWS Boston, MA

Current Version | Previous Version | Graphics & Text | Print | Product List | Glossary On
Versions: 1 2 3 4 5 6 7 8 9 10 11 12 13 14 15 16 17 18 19 20 21 22 23 24 25 26 27 28 29 30 31 32 33 34 35 36 37 38 39 40 41 42 43 44 45 46 47 48 49 50
786
ASUS41 KBOX 192010
RWRBOX

REGIONAL WEATHER ROUNDUP
NATIONAL WEATHER SERVICE BOSTON/NORTON MA
400 PM EDT SAT OCT 19 2019

NOTE:  "FAIR" INDICATES FEW OR NO CLOUDS BELOW 12,000 FEET WITH NO
SIGNIFICANT WEATHER AND/OR OBSTRUCTIONS TO VISIBILITY.

MAZALL-192100-
EASTERN MASSACHUSETTS

CITY           SKY/WX    TMP DP  RH WIND       PRES   REMARKS
BOSTON         FAIR      61  34  36 W7        29.98S
BEVERLY        FAIR      59  34  39 VRB7      29.97S
LAWRENCE       FAIR      58  34  40 NW8       29.99S
BEDFORD        FAIR      63  34  33 W8        29.96F
BLUE HILL      NOT AVBL
NORWOOD        FAIR      62  34  35 VRB6      29.98S
MARSHFIELD     FAIR      55  41  58 VRB5      29.98S
PLYMOUTH       FAIR      58  37  45 W7        29.98F
TAUNTON        FAIR      60  35  39 W7        29.98S
NEW BEDFORD    FAIR      58  36  43 W9        29.99S
$$

MAZALL-192100-
CAPE COD AND THE ISLANDS

CITY           SKY/WX    TMP DP  RH WIND       PRES   REMARKS
FALMOUTH       SUNNY     55  36  47 NW8       30.00S
HYANNIS        FAIR      58  39  49 VRB3      29.98S
CHATHAM        NOT AVBL
PROVINCETOWN   FAIR      52  38  58 NW3         N/A
NANTUCKET      FAIR      54  41  61 W10       30.01R
MARTHAS VNYRD  FAIR      55  38  52 W6        30.00S
$$

MAZALL-192100-
CENTRAL AND WESTERN MASSACHUSETTS

CITY           SKY/WX    TMP DP  RH WIND       PRES   REMARKS
WORCESTER      FAIR      55  34  45 NW12      29.99R
FITCHBURG      FAIR      60  32  34 NW10      29.99S
ORANGE         FAIR      59  32  36 NW5       29.99S
SPRINGFIELD    MOSUNNY   61  34  36 SW6       29.98S
WESTFIELD      FAIR      62  32  32 NW8       29.98S
NORTH ADAMS    FAIR      55  34  45 NW6       30.00F
PITTSFIELD     FAIR      54  33  45 W9        29.99F
$$

RIZALL-192100-
RHODE ISLAND

CITY           SKY/WX    TMP DP  RH WIND       PRES   REMARKS
PROVIDENCE     FAIR      60  36  40 W6        30.00R
NEWPORT        FAIR      56  41  57 SW7       29.99F
BLOCK ISLAND   FAIR      55  40  56 W12       30.02S
SMITHFIELD     FAIR     N/A N/A N/A W9        29.99S
WESTERLY       FAIR      59  44  57 SW10      30.01S
$$

CTZALL-192100-
CONNECTICUT

CITY           SKY/WX    TMP DP  RH WIND       PRES   REMARKS
BRADLEY INTL   FAIR      64  33  31 SW5       29.98F
HARTFORD       FAIR      62  33  33 W6        29.99S
BRIDGEPORT     FAIR      59  39  47 SW13      30.02S
DANBURY        FAIR      59  33  37 W3        30.02S
GROTON         FAIR      57  43  59 SW13      30.00S
NEW HAVEN      FAIR      60  42  51 SW10G18   30.01S
CHESTER        FAIR      61  41  48 VRB6G12   30.00S
MERIDEN        FAIR      61  33  35 SW8       30.00S
WILLIMANTIC    FAIR      60  36  40 NW6       30.01S
OXFORD         FAIR      58  33  39 CALM      30.01S
$$

MEZ002-015-021-024-NHZ003-005-008-011-012-014-VTZ005-008-192100-
NORTHERN NEW ENGLAND

CITY           SKY/WX    TMP DP  RH WIND       PRES   REMARKS
PORTLAND ME    FAIR      58  35  42 NW6       29.95R
BANGOR ME      FAIR      56  35  45 NW13      29.91R
CONCORD NH     FAIR      59  31  34 NW9       29.97S
MANCHESTER NH  FAIR      60  31  33 NW8       29.96S
NASHUA NH      FAIR      60  32  34 W8        29.97F
PORTSMOUTH NH  SUNNY     59  30  33 W8        29.95R
JAFFREY NH     FAIR      57  29  34 VRB5      29.98S
KEENE NH       FAIR      58  33  39 CALM      29.99S
BURLINGTON VT  FAIR      53  32  44 CALM      30.03S
MT. WASHINGTON MOSUNNY   28  -2  26 NW35        N/A  WCI  12
$$

NYZ052-076-192100-
EASTERN NEW YORK

CITY           SKY/WX    TMP DP  RH WIND       PRES   REMARKS
ALBANY         FAIR      59  35  40 NW5       30.03S
NEW YORK CITY  PTSUNNY   61  35  37 VRB3      30.02F
$$

ANZALL-192100-
MARINE OBSERVATIONS

STATION/POSITION TIME  TEMP    WIND        PRES    VSBY  WAVE
                       AIR SEA DIR/SP/G                  HT/PER
                 (UTC) (F)     (DEG/KT/KT) (MB)    (MI)  (FT/S)
BOSTON BUOY      1950   55 57  230/  6/  8 1014.2F         1/11
BUZZARDS BAY     1900   52     240/ 11/ 14 1016.6F
NANTUCKET SOUND  1940      57                N/A           1
MASS BAY-STELLWA 1904   53 56  220/ 12/ 14 1014.1F  1 7/8  1/ 3
ISLE OF SHOALS   1900   55     270/  2/  2 1014.1F
S OF BLOCK IS    2000      60                N/A           2/ 3
$$

......................KEY.........................
  SKY/WX - SKY CONDITION/PRESENT WEATHER
  TMP    - TEMPERATURE IN FAHRENHEIT
  DWPT   - DEWPOINT IN FAHRENHEIT
  RH     - RELATIVE HUMIDITY IN PERCENT
  WIND   - DIRECTION AND SPEED IN MPH
  PRES   - MEAN SEA LEVEL PRESSURE IN INCHES OF HG
  WCI    - WIND CHILL INDEX
  VSB    - VISIBILITY IN MILES
  HX     - HEAT INDEX
  TC     - TEMPERATURE IN CELSIUS
  VRB    - VARIABLE WIND DIRECTION
  N/A    - NOT AVAILABLE




USA.gov is the U.S. government's official web portal to all federal, state and local government web resources and services.